Location: Newark
(44.3681°N, 100.3364°W)
Time: 15:28:56
(UTC+00:00)

deb Explorer IX - Pass Details

Date: 19 February 2020
Orbit: 547 x 1100 km, 38.8° (Epoch: 31 March)

Event Time Altitude Azimuth Distance (km) Brightness Sun altitude
Rises 20:23:09 0° 256° (WSW) 2,704 ? 30.9°
Reaches altitude 10° 20:25:28 10° 249° (WSW) 1,813 ? 30.7°
Maximum altitude 20:29:17 39° 180° (S) 847 ? 30.4°
Drops below altitude 10° 20:33:21 10° 111° (ESE) 1,921 ? 30.1°
Sets 20:35:51 0° 103° (ESE) 2,890 ? 29.9°
